This is the latest recevied weather packets stored in our database for station/object KM8V-8. If no packets are shown the sender has not sent any weather packets the latest 10 day(s).
| Time | Temp. | Humidity | Pressure | Rain* | Wind** | Luminosity | Snow |
|---|---|---|---|---|---|---|---|
| 1778069720 | 7.78° C | 100% | 1009.7 hPa | 0 mm | - | 47 W/m² | - |
| 1778069420 | 7.78° C | 100% | 1009.8 hPa | 0 mm | - | 36 W/m² | - |
| 1778069120 | 7.78° C | 100% | 1009.8 hPa | 0 mm | - | 41 W/m² | - |
| 1778068824 | 7.78° C | 100% | 1009.7 hPa | 0 mm | - | 50 W/m² | - |
| 1778068520 | 7.78° C | 100% | 1009.6 hPa | 0 mm | - | 35 W/m² | - |
| 1778068220 | 7.78° C | 100% | 1009.7 hPa | 0 mm | - | 29 W/m² | - |
| 1778067920 | 7.22° C | 100% | 1009.5 hPa | 0 mm | - | 29 W/m² | - |
| 1778067620 | 7.22° C | 100% | 1009.4 hPa | 0 mm | - | 27 W/m² | - |
| 1778067321 | 7.22° C | 100% | 1009.3 hPa | 0 mm | - | 25 W/m² | - |
| 1778067020 | 7.22° C | 100% | 1009.1 hPa | 0 mm | - | 23 W/m² | - |
| 1778066721 | 7.22° C | 100% | 1008.9 hPa | 0 mm | - | 22 W/m² | - |
| 1778066421 | 7.22° C | 100% | 1008.9 hPa | 0 mm | - | 19 W/m² | - |
| 1778066121 | 7.22° C | 100% | 1008.9 hPa | 0 mm | - | 18 W/m² | - |
| 1778065821 | 7.22° C | 100% | 1008.9 hPa | 0 mm | - | 12 W/m² | - |
| 1778065521 | 7.22° C | 100% | 1008.7 hPa | 0 mm | - | 11 W/m² | - |
| 1778065221 | 7.22° C | 100% | 1008.4 hPa | 0 mm | - | 12 W/m² | - |
| 1778064922 | 7.22° C | 100% | 1008.5 hPa | 0 mm | - | 11 W/m² | - |
| 1778064621 | 7.22° C | 100% | 1008.5 hPa | 0 mm | - | 8 W/m² | - |
| 1778064321 | 7.22° C | 100% | 1008.4 hPa | 0 mm | - | 6 W/m² | - |
| 1778064022 | 7.22° C | 100% | 1008.2 hPa | 0 mm | - | 6 W/m² | - |
| 1778063722 | 7.22° C | 100% | 1008.6 hPa | 0 mm | - | 5 W/m² | - |
| 1778063422 | 7.22° C | 100% | 1008.7 hPa | 0 mm | - | 3 W/m² | - |
| 1778063122 | 7.22° C | 100% | 1008.7 hPa | 0 mm | - | 1 W/m² | - |
| 1778062822 | 7.22° C | 100% | 1008.7 hPa | 0 mm | - | 1 W/m² | - |
| 1778062522 | 7.22° C | 100% | 1008.6 hPa | 0.25 mm | - | 0 W/m² | - |
* Rain latest hour (hover to see other rain measurements)
** Current wind speed in m/s (hover to see current wind gust speed)